Terug naar catalogus

STARLINK-30492

ActiefCommunicatieVLEO
NORAD 57921·PAYLOAD·🇺🇸 United States

Gelanceerd Sep 24, 2023 vanaf Cape Canaveral Space Force Station

Loading…

Volgende Passages (komende 24 uur)

TLE

VersSource: CelesTrak SupGP

Epoch: Sep 15, 2026, 02:48 UTC

1 57921C 23147J   26258.11715278  .00041078  00000+0  14879-2 0  2584
2 57921  43.0010 335.5632 0001642 270.4746 205.2317 15.27556102    19

Volg STARLINK-30492 in realtime met AllMySat

Download on the App Store